This is the latest recevied weather packets stored in our database for station/object IK6ZNK-3. If no packets are shown the sender has not sent any weather packets the latest 10 day(s).
| Time | Temp. | Humidity | Pressure | Rain* | Wind** | Luminosity | Snow |
|---|---|---|---|---|---|---|---|
| 1778003407 | 16.67° C | 81% | 1006.3 hPa | 0 mm | - | - | - |
| 1778002807 | 16.67° C | 80% | 1006.2 hPa | 0 mm | - | - | - |
| 1778002207 | 17.78° C | 78% | 1006.2 hPa | 0 mm | - | - | - |
| 1778001607 | 17.78° C | 77% | 1006.3 hPa | 0 mm | - | - | - |
| 1778001007 | 17.78° C | 75% | 1006.3 hPa | 0 mm | - | - | - |
| 1778000407 | 18.89° C | 75% | 1006.5 hPa | 0 mm | - | - | - |
| 1777999807 | 18.33° C | 72% | 1006.4 hPa | 0 mm | - | - | - |
| 1777999207 | 18.33° C | 73% | 1006.5 hPa | 0 mm | - | - | - |
| 1777998609 | 18.89° C | 72% | 1006.4 hPa | 0 mm | - | - | - |
| 1777998013 | 18.89° C | 71% | 1006.6 hPa | 0 mm | - | - | - |
| 1777997407 | 19.44° C | 71% | 1006.5 hPa | 0 mm | - | - | - |
| 1777996807 | 19.44° C | 69% | 1006.7 hPa | 0 mm | - | - | - |
| 1777996207 | 19.44° C | 67% | 1006.6 hPa | 0 mm | - | - | - |
| 1777995607 | 19.44° C | 69% | 1006.2 hPa | 0 mm | - | - | - |
| 1777995007 | 19.44° C | 69% | 1006.7 hPa | 0 mm | - | - | - |
| 1777994407 | 20° C | 69% | 1006.4 hPa | 0 mm | - | - | - |
| 1777993807 | 20° C | 68% | 1006.8 hPa | 0 mm | - | - | - |
| 1777993207 | 19.44° C | 70% | 1006.6 hPa | 0 mm | - | - | - |
| 1777992607 | 19.44° C | 71% | 1006.6 hPa | 0 mm | - | - | - |
| 1777992006 | 19.44° C | 70% | 1006.7 hPa | 0 mm | - | - | - |
| 1777991407 | 19.44° C | 70% | 1007 hPa | 0 mm | - | - | - |
| 1777990807 | 19.44° C | 69% | 1006.7 hPa | 0 mm | - | - | - |
| 1777989609 | 20° C | 68% | 1006.7 hPa | 0 mm | - | - | - |
| 1777989008 | 20° C | 69% | 1007 hPa | 0 mm | - | - | - |
| 1777988407 | 20° C | 70% | 1007 hPa | 0 mm | - | - | - |
* Rain latest hour (hover to see other rain measurements)
** Current wind speed in m/s (hover to see current wind gust speed)